| time (UTC) | temp F | wind direction | speed knots | gust knots | rain 1hr in | rain 24hr in | rain mn in | humidity % | barometer mb |
| 20260507220007 | 80 | 333 | 1.7 | 7.0 | 0.00 | 0.00 | 0.00 | 79 | 1015.8 |
| 20260507214506 | 81 | 290 | 2.6 | 9.6 | 0.00 | 0.00 | 0.00 | 77 | 1015.4 |
| 20260507213010 | 82 | 195 | 3.5 | 9.6 | 0.00 | 0.00 | 0.00 | 76 | 1015.3 |
| 20260507211508 | 81 | 309 | 3.5 | 9.6 | 0.00 | 0.00 | 0.00 | 75 | 1015.2 |
| 20260507210033 | 81 | 258 | 3.5 | 7.8 | 0.00 | 0.00 | 0.00 | 76 | 1015.3 |
| 20260507204511 | 82 | 302 | 3.5 | 7.0 | 0.00 | 0.00 | 0.00 | 75 | 1015.2 |
| 20260507203016 | 82 | 274 | 3.5 | 9.6 | 0.00 | 0.00 | 0.00 | 73 | 1015.2 |
| 20260507201514 | 84 | 216 | 1.7 | 11.3 | 0.00 | 0.00 | 0.00 | 72 | 1015.3 |
| 20260507200015 | 85 | 310 | 4.3 | 14.8 | 0.00 | 0.00 | 0.00 | 70 | 1015.3 |
| 20260507194510 | 85 | 301 | 3.5 | 11.3 | 0.00 | 0.00 | 0.00 | 70 | 1015.2 |
| 20260507193012 | 85 | 321 | 3.5 | 11.3 | 0.00 | 0.00 | 0.00 | 71 | 1015.5 |
| 20260507191524 | 84 | 290 | 4.3 | 11.3 | 0.00 | 0.00 | 0.00 | 71 | 1015.6 |
| 20260507190016 | 86 | 263 | 3.5 | 9.6 | 0.00 | 0.00 | 0.00 | 69 | 1015.7 |
| 20260507184513 | 85 | 281 | 3.5 | 10.4 | 0.00 | 0.00 | 0.00 | 71 | 1015.9 |
| 20260507183006 | 86 | 281 | 6.1 | 13.0 | 0.00 | 0.00 | 0.00 | 69 | 1015.8 |
| 20260507181511 | 87 | 285 | 6.1 | 12.2 | 0.00 | 0.00 | 0.00 | 68 | 1016.0 |
| 20260507173019 | 87 | 333 | 2.6 | 11.3 | 0.00 | 0.00 | 0.00 | 67 | 1016.6 |
| 20260507171514 | 86 | 292 | 1.7 | 7.8 | 0.00 | 0.00 | 0.00 | 73 | 1016.9 |
| 20260507170006 | 86 | 277 | 4.3 | 14.8 | 0.00 | 0.00 | 0.00 | 69 | 1017.1 |
| 20260507164519 | 87 | 214 | 2.6 | 7.8 | 0.00 | 0.00 | 0.00 | 71 | 1017.3 |
| 20260507163016 | 86 | 301 | 2.6 | 7.8 | 0.00 | 0.00 | 0.00 | 71 | 1017.6 |
| 20260507161519 | 85 | 259 | 6.1 | 13.0 | 0.00 | 0.00 | 0.00 | 73 | 1017.8 |
| 20260507160003 | 85 | 277 | 4.3 | 9.6 | 0.00 | 0.00 | 0.00 | 74 | 1017.9 |
| 20260507154512 | 84 | 261 | 3.5 | 10.4 | 0.00 | 0.00 | 0.00 | 73 | 1018.1 |
| 20260507153016 | 84 | 288 | 1.7 | 5.2 | 0.00 | 0.00 | 0.00 | 73 | 1018.1 |
| 20260507151507 | 84 | 233 | 2.6 | 9.6 | 0.00 | 0.00 | 0.00 | 73 | 1018.2 |
| 20260507150003 | 85 | 290 | 4.3 | 7.8 | 0.00 | 0.00 | 0.00 | 70 | 1018.3 |
| 20260507144505 | 84 | 233 | 3.5 | 11.3 | 0.00 | 0.00 | 0.00 | 73 | 1018.3 |
| 20260507143006 | 83 | 240 | 2.6 | 8.7 | 0.00 | 0.00 | 0.00 | 76 | 1018.5 |
| 20260507141523 | 82 | 262 | 7.0 | 13.0 | 0.00 | 0.00 | 0.00 | 77 | 1018.5 |
| 20260507140013 | 82 | 230 | 4.3 | 9.6 | 0.00 | 0.00 | 0.00 | 80 | 1018.8 |
| 20260507134515 | 81 | 217 | 2.6 | 10.4 | 0.00 | 0.00 | 0.00 | 82 | 1018.9 |
| 20260507133012 | 80 | 262 | 2.6 | 7.8 | 0.00 | 0.00 | 0.00 | 84 | 1018.8 |
| 20260507131514 | 81 | 55 | 1.7 | 5.2 | 0.00 | 0.00 | 0.00 | 84 | 1018.7 |
| 20260507130012 | 80 | 8 | 0.9 | 7.0 | 0.00 | 0.00 | 0.00 | 85 | 1018.6 |
| 20260507123026 | 78 | 295 | 0.9 | 6.1 | 0.00 | 0.00 | 0.00 | 89 | 1018.6 |
| 20260507121515 | 79 | 337 | 0.0 | 4.3 | 0.00 | 0.00 | 0.00 | 87 | 1018.2 |
| 20260507120012 | 80 | 229 | 1.7 | 6.1 | 0.00 | 0.00 | 0.00 | 85 | 1018.1 |
| 20260507114517 | 81 | 293 | 0.9 | 2.6 | 0.00 | 0.00 | 0.00 | 85 | 1018.1 |
| 20260507111516 | 77 | 210 | 0.0 | 2.6 | 0.00 | 0.00 | 0.00 | 93 | 1017.8 |
| 20260507110005 | 75 | 37 | 0.9 | 2.6 | 0.00 | 0.00 | 0.00 | 93 | 1017.8 |
| 20260507104520 | 75 | 328 | 0.0 | 3.5 | 0.00 | 0.00 | 0.00 | 94 | 1017.7 |
| 20260507103011 | 75 | 264 | 0.9 | 2.6 | 0.00 | 0.00 | 0.00 | 94 | 1017.5 |
| 20260507101522 | 74 | 273 | 0.9 | 5.2 | 0.00 | 0.00 | 0.00 | 94 | 1017.4 |
| 20260507100006 | 74 | 29 | 1.7 | 3.5 | 0.00 | 0.00 | 0.00 | 95 | 1017.3 |
| 20260507093011 | 74 | 271 | 0.0 | 0.0 | 0.00 | 0.00 | 0.00 | 95 | 1017.4 |
| 20260507091508 | 74 | 265 | 0.0 | 0.0 | 0.00 | 0.00 | 0.00 | 95 | 1017.3 |
| 20260507090016 | 74 | 254 | 0.0 | 0.9 | 0.00 | 0.00 | 0.00 | 95 | 1017.4 |
| 20260507084516 | 74 | 221 | 0.0 | 1.7 | 0.00 | 0.00 | 0.00 | 94 | 1017.4 |
| 20260507083012 | 74 | 293 | 0.9 | 2.6 | 0.00 | 0.00 | 0.00 | 94 | 1017.3 |
| 20260507081529 | 75 | 341 | 0.9 | 4.3 | 0.00 | 0.00 | 0.00 | 94 | 1017.2 |
| 20260507080022 | 75 | 317 | 0.0 | 1.7 | 0.00 | 0.00 | 0.00 | 94 | 1017.1 |
| 20260507073013 | 74 | 294 | 0.0 | 0.0 | 0.00 | 0.00 | 0.00 | 94 | 1017.3 |
| 20260507071514 | 74 | 331 | 0.0 | 0.0 | 0.00 | 0.00 | 0.00 | 94 | 1017.4 |
| 20260507070004 | 74 | 255 | 0.0 | 0.0 | 0.00 | 0.00 | 0.00 | 94 | 1017.4 |
| 20260507064504 | 75 | 222 | 0.0 | 3.5 | 0.00 | 0.00 | 0.00 | 94 | 1017.6 |
| 20260507063004 | 75 | 311 | 1.7 | 4.3 | 0.00 | 0.00 | 0.00 | 94 | 1017.7 |
| 20260507060004 | 75 | 303 | 1.7 | 3.5 | 0.00 | 0.00 | 0.00 | 93 | 1018.0 |
| 20260507054505 | 75 | 316 | 1.7 | 4.3 | 0.00 | 0.00 | 0.00 | 93 | 1018.1 |
| 20260507053004 | 75 | 288 | 0.9 | 4.3 | 0.00 | 0.00 | 0.00 | 93 | 1018.4 |
| 20260507051505 | 75 | 296 | 1.7 | 4.3 | 0.00 | 0.00 | 0.00 | 93 | 1018.7 |
| 20260507044505 | 75 | 314 | 0.0 | 1.7 | 0.00 | 0.00 | 0.00 | 94 | 1019.3 |
| 20260507043005 | 75 | 319 | 0.0 | 0.9 | 0.00 | 0.00 | 0.00 | 94 | 1019.5 |
| 20260507041510 | 75 | 25 | 0.0 | 0.9 | 0.00 | 0.00 | 0.00 | 94 | 1019.6 |
| 20260507040003 | 75 | 235 | 0.0 | 0.9 | 0.00 | 0.00 | 0.00 | 93 | 1019.6 |
| 20260507033012 | 76 | 244 | 0.0 | 1.7 | 0.00 | 0.00 | 0.00 | 92 | 1019.7 |
| 20260507031509 | 76 | 290 | 0.0 | 3.5 | 0.00 | 0.00 | 0.00 | 92 | 1019.8 |
| 20260507030007 | 76 | 309 | 0.0 | 1.7 | 0.00 | 0.00 | 0.00 | 92 | 1019.8 |
| 20260507024506 | 76 | 248 | 0.0 | 2.6 | 0.00 | 0.00 | 0.00 | 92 | 1019.8 |
| 20260507021511 | 76 | 250 | 0.0 | 0.9 | 0.00 | 0.00 | 0.00 | 89 | 1019.7 |
| 20260507020010 | 76 | 20 | 1.7 | 2.6 | 0.00 | 0.00 | 0.00 | 89 | 1019.6 |
| 20260507014523 | 76 | 335 | 1.7 | 3.5 | 0.00 | 0.00 | 0.00 | 88 | 1019.5 |
| 20260507013029 | 76 | 348 | 2.6 | 4.3 | 0.00 | 0.00 | 0.00 | 88 | 1019.5 |
| 20260507010012 | 76 | 341 | 2.6 | 3.5 | 0.00 | 0.00 | 0.00 | 88 | 1019.2 |
| 20260507004507 | 76 | 334 | 0.9 | 2.6 | 0.00 | 0.00 | 0.00 | 88 | 1019.2 |
| 20260507003014 | 76 | 308 | 0.0 | 2.6 | 0.00 | 0.00 | 0.00 | 88 | 1018.9 |
| 20260507001514 | 76 | 341 | 0.9 | 5.2 | 0.00 | 0.00 | 0.00 | 88 | 1018.7 |
| 20260507000020 | 76 | 349 | 0.9 | 5.2 | 0.00 | 0.00 | 0.00 | 87 | 1018.4 |
| 20260506234512 | 77 | 309 | 1.7 | 5.2 | 0.00 | 0.00 | 0.00 | 87 | 1018.3 |
| 20260506233016 | 77 | 297 | 0.9 | 5.2 | 0.00 | 0.00 | 0.00 | 85 | 1017.8 |
| 20260506231514 | 78 | 330 | 2.6 | 5.2 | 0.00 | 0.00 | 0.00 | 85 | 1017.7 |
| 20260506230011 | 78 | 313 | 2.6 | 6.1 | 0.00 | 0.00 | 0.00 | 83 | 1017.5 |
| 20260506223013 | 80 | 307 | 1.7 | 7.0 | 0.00 | 0.00 | 0.00 | 78 | 1017.2 |